Location: Clermont
(50.2608°N, 4.3172°E)
Time: 04:58:02
(UTC+00:00)

Cosmos 2360 Rocket - Pass Details

Date: 13 August 2020
Orbit: 833 x 845 km, 71.0° (Epoch: 19 September)

Event Time Altitude Azimuth Distance (km) Brightness Sun altitude
Rises 22:35:50 0° 325° (NW) 3,416 6.6 -23.6°
Reaches altitude 10° 22:38:29 10° 316° (NW) 2,475 5.5 -23.7°
Maximum altitude 22:43:30 34° 254° (WSW) 1,370 3.2 -23.9°
Enters shadow 22:44:43 31° 229° (SW) 1,454 3.2 -24.0°
